Погода в Узунколе

Казахстан     54°02′42″N   65°20′36″E
В апреле 2022 года жителям России запретили посещать сайт meteo.paraplan.net по решению Генеральной прокуратуры. Аудитория сайта уменьшилась в 10 раз. Владельцы сайта не видят смысла в поддержке погодного сервера в таких условиях. Сайт будет закрыт в октябре.
темп.,
°C
ветер,
м/с
пор.,
м/с
влажн.,
%
обл.,
%
осадки,
мм/ч
давл.,
гПа
погр.,
м
25 сентября, вс
вс2500:00+22ююв4930100 0.0 1010153
03:00+18юз45365 0.0 100962
06:00+17з334061 0.0 100930
09:00+18зсз2445100 0.0 1009125
12:00+23ссз2331100 0.0 1009467
15:00+25св3229100 0.0 10081104
18:00+23всв4538100 0.0 1008638
21:00+17всв91256100 0.0 1009423
26 сентября, пн
пн2600:00+14в91471100 0.4 1009393
03:00+12в81376100 0.3 1008424
06:00+11в101679100 0.4 1004417
09:00+10в61388100 1.8 1003629
12:00+10вюв4688100 8.6 1003569
15:00+13юз887299 0.4 1003963
18:00+11з71184100 0.6 1004666
21:00+7з81286100 0.8 1008890
27 сентября, вт
вт2700:00+3зсз6995100 0.9 1009650
03:00+2сз7990100 0.2 1011840
06:00+2сз6995100 0.4 1012757
09:00+1ссз51099100 0.5 1014369
12:00+2ссз5687100 0.9 1016658
15:00+4с4573100 0.1 1017907
18:00+3с4471100 0.1 1019976
21:00+3св3476100 0.1 1020524
28 сентября, ср
ср2800:00+3св2269100 0.1 1020475
03:00+2всв2371100 0.0 1020246
06:00+1всв358295 0.0 1021142
09:00+1в347494 0.0 1021228
12:00+4в3356100 0.0 1022937
15:00+6в334767 0.0 10211232
18:00+6всв434675 0.0 10211271
21:00+4всв4758100 0.0 1022337
29 сентября, чт
чт2900:00+3всв4765100 0.0 1022392
03:00+2всв366999 0.0 1023222
06:000св36776 0.0 1023164
09:00+1всв577373 0.0 1023299
12:00+5всв555154 0.0 10231040
15:00+7всв554299 0.0 10231522
18:00+6св554061 0.0 10231526
21:00+3св611585 0.0 1025442